Regional Weather Roundup
Issued by NWS

Home | Current Version | Previous Version | Graphics & Text | Print | Product List | Glossary On
Versions: 1 2 3 4 5 6 7 8 9 10 11 12 13 14 15 16 17 18 19 20 21 22 23 24 25 26 27 28 29 30 31 32 33 34 35 36 37 38 39 40 41 42 43 44 45 46 47 48 49 50
000
ASUS43 KLMK 292202
RWRKY
KENTUCKY REGIONAL WEATHER ROUNDUP
NATIONAL WEATHER SERVICE LOUISVILLE KY
600 PM EDT FRI MAY 29 2015

NOTE "FAIR" INDICATES FEW OR NO CLOUDS BELOW 12,000 FEET
WITH NO SIGNIFICANT WEATHER AND/OR OBSTRUCTIONS TO VISIBILITY.

KYZ001>023-026-027-061>063-070>075-292300-
WESTERN AND SOUTH CENTRAL KENTUCKY

CITY           SKY/WX    TMP DP  RH WIND       PRES   REMARKS
PADUCAH        MOSUNNY   84  65  52 SE10      29.99F
HENDERSON      MOSUNNY   84  66  54 S10       30.00F
OWENSBORO      PTSUNNY   82  69  64 S10       30.04F
HOPKINSVILLE   MOSUNNY   83  68  60 S8        30.04F
BOWLING GREEN  MOSUNNY   82  66  58 S12       30.06F
GLASGOW        NOT AVBL
$$

KYZ024-025-028>034-038-045-046-053-292300-
NORTH CENTRAL KENTUCKY

CITY           SKY/WX    TMP DP  RH WIND       PRES   REMARKS
LOUISVILLE/SDF MOSUNNY   83  65  54 SW8       30.05F
LOUISVILLE/LOU MOSUNNY   82  65  56 S8        30.06F
FORT KNOX      MOSUNNY   81  67  63 VRB7      30.06S
$$

KYZ035>037-039>044-047>052-055>060-089>105-292300-
NORTHEAST KENTUCKY

CITY           SKY/WX    TMP DP  RH WIND       PRES   REMARKS
LEXINGTON      MOSUNNY   80  67  64 S14       30.10F
COVINGTON      PTSUNNY   80  65  59 S12G21    30.07F
FRANKFORT      PTSUNNY   81  65  58 S10       30.08S
$$

KYZ054-064>069-076>088-106>120-292300-
SOUTHEAST KENTUCKY

CITY           SKY/WX    TMP DP  RH WIND       PRES   REMARKS
JACKSON        PTSUNNY   75  70  84 CALM      30.15S
LONDON         MOSUNNY   85  63  47 VRB5      30.13F
SOMERSET       NOT AVBL
MIDDLESBORO    MOSUNNY   81  66  61 S7        30.14F
MONTICELLO     PTCLDY    83  71  66 SW7       30.14F
$$




USA.gov is the U.S. government's official web portal to all federal, state and local government web resources and services.